Flag for Sweden Weather past 2 weeks in Västerås, Sweden

Now
54 °F

Light rain. Scattered clouds.


Feels Like: 52 °F
Forecast: 49 / 62 °F
Wind: 6 mph from Southwest

Location: Vasteras / Hasslo

Current Time: Aug 23, 2014 at 9:11:26 PM

Latest Report: Aug 23, 2014 at 8:20 PM


Visibility: 6 mi

Pressure: 29.62 "Hg

Humidity: 94%

Dew point: 52 °F

Location of VästeråsLocation

Historic Weather in Västerås — Graph

°F

Västerås temperature yesterday

Maximum temperature yesterday: 64 °F (at 1:20 PM)
Minimum temperature yesterday: 52 °F (at 9:50 PM)
Average temperature yesterday: 59 °F

Past Weeks' High & Low Weather Summary

 TemperatureHumidityPressure
High82 °F (Aug 9, 2:50 PM)100% (Aug 9, 3:50 AM)29.92 "Hg (Aug 9, 3:50 AM)
Low46 °F (Aug 14, 4:20 AM)38% (Aug 16, 3:50 PM)29.27 "Hg (Aug 19, 1:20 AM)
Average60 °F80%29.61 "Hg
* Reported Aug 8 7:20 PM — Aug 23 7:50 PM, Västerås, Weather by CustomWeather, © 2014

Note: Actual official high and low records may vary slightly from our data, if they occured in-between our weather recording intervals... More about our weather records

Advertising

Västerås weather history for previous 24 hours

 ConditionsComfort  
Time TempWeatherWind HumidityBarometerVisibility
7:50 PM
Aug 23
54 °FLight rain. Passing clouds.6 mph94%29.62 "HgN/A
7:20 PM54 °FRain. Fog.6 mph94%29.62 "Hg4 mi
6:50 PM55 °FLight rain. Scattered clouds.7 mph88%29.62 "HgN/A
6:20 PM54 °FHeavy rain. Dense fog.3 mph100%29.62 "Hg2 mi
5:50 PM55 °FLight rain. Scattered clouds.5 mph94%29.62 "Hg4 mi
5:20 PM55 °FDrizzle. Broken clouds.3 mph94%29.62 "HgN/A
4:50 PM55 °FRain. Broken clouds.13 mph94%29.59 "Hg4 mi
4:20 PM55 °FBroken clouds.13 mph94%29.62 "HgN/A
3:50 PM59 °FDrizzle. Broken clouds.9 mph82%29.59 "HgN/A
3:20 PM59 °FRain showers. Partly sunny.10 mph82%29.62 "HgN/A
2:50 PM63 °FScattered clouds.8 mph73%29.62 "HgN/A
2:20 PM61 °FScattered clouds.8 mph77%29.62 "HgN/A
1:50 PM61 °FScattered clouds.10 mph72%29.62 "HgN/A
1:20 PM61 °FSprinkles. Broken clouds.13 mph72%29.62 "HgN/A
12:50 PM63 °FPassing clouds.8 mph68%29.62 "HgN/A
12:20 PM63 °FBroken clouds.8 mph68%29.62 "HgN/A
11:50 AM63 °FPassing clouds.7 mph68%29.65 "HgN/A
11:20 AM63 °FPassing clouds.7 mph68%29.65 "HgN/A
10:50 AM61 °FScattered clouds.9 mph68%29.65 "HgN/A
10:20 AM61 °FPassing clouds.7 mph68%29.65 "HgN/A
9:50 AM57 °FPassing clouds.6 mph82%29.65 "HgN/A
9:20 AM57 °FPassing clouds.6 mph82%29.65 "HgN/A
8:50 AM57 °FPassing clouds.7 mph82%29.68 "HgN/A
8:20 AM55 °FPassing clouds.8 mph88%29.68 "HgN/A
7:50 AM55 °FCool.7 mph88%29.68 "HgN/A
7:20 AM54 °FPassing clouds.6 mph94%29.68 "HgN/A
6:50 AM54 °FCool.5 mph94%29.68 "HgN/A
6:20 AM52 °FPassing clouds.2 mph94%29.68 "HgN/A
5:50 AM50 °FPassing clouds.3 mph100%29.68 "HgN/A
5:20 AM52 °FLight rain. Passing clouds.2 mph94%29.68 "HgN/A
4:50 AM52 °FPassing clouds.3 mph94%29.68 "HgN/A
4:20 AM52 °FPassing clouds.3 mph88%29.68 "HgN/A
3:50 AM50 °FPassing clouds.3 mph94%29.68 "HgN/A
3:20 AM50 °FPassing clouds.3 mph94%29.68 "HgN/A
2:50 AM50 °FPassing clouds.3 mph94%29.71 "HgN/A
2:20 AM54 °FCool.7 mph82%29.71 "HgN/A
1:50 AM52 °FCool.6 mph88%29.71 "HgN/A
1:20 AM52 °FCool.6 mph88%29.71 "HgN/A
12:50 AM52 °FCool.6 mph88%29.71 "HgN/A
12:20 AM54 °FPassing clouds.6 mph88%29.71 "HgN/A
11:50 PM
Aug 22
55 °FPassing clouds.7 mph82%29.71 "HgN/A
11:20 PM55 °FPassing clouds.6 mph82%29.71 "HgN/A
10:50 PM54 °FPassing clouds.7 mph88%29.71 "HgN/A
10:20 PM52 °FClear.2 mph88%29.71 "Hg10 mi
9:50 PM52 °FClear.2 mph88%29.74 "Hg10 mi
9:20 PM55 °FSunny.2 mph82%29.71 "Hg10 mi
Weather by CustomWeather, © 2014

See weather overviewHow to use our weather pages